ROMMA est une association bénévole à but non lucratif. Votre soutien est indispensable : ADHERER à ROMMA ou FAIRE un DON

Crêts du Salève - (74, Haute-Savoie)

Salève (1270 m)   Longitude: 6° 10' 28'' E   Latitude: 46° 7' 42'' N Station romma n°73
 

Détail journalier du     <<     >>

Température Precipitation Humidité Vent Dir Rafale Dir. rafale Ensol.
Heure (°C) (mm) (%) (km/h) (km/h) (min)
01:00 9.70956OSO11OSO0
02:00 9.60916OSO11OSO0
03:00 9.10969OSO16OSO0
04:00 8.809114OSO19OSO0
05:00 8.70899O16OSO0
06:00 8.80864O10O0
07:00 9.10891O5O10
08:00 9.80905O11SSE40
09:00 8.90962SSE10SSE30
10:00 8.90942SSE11SE10
11:00 9.90912SE11SE0
12:00 9.50877O13O0
13:00 10.509010O19O30
14:00 10.40907O21O0
15:00 11.508520O31OSO30
16:00 12.607820O34OSO50
17:00 12.607924O37O40
18:00 11.908022O32O20
19:00 12.207824O39ONO50
20:00 12.507824OSO34O40
21:00 11.607919O27O20
22:00 10.608716O29O0
23:00 10.408713NNE23NE0
minuit 6.910.49716SSO44S0

Graphique du 18-06-2020

 

Serveur OMMA